Weather History for Champaign, IL

Change the Weather History Date:

Wednesday, January 1, 2014

  Actual Average Record
Temperature  
Mean Temperature 28 °F 26 °F  
Max Temperature 35 °F 33 °F 54 °F (2000)
Min Temperature 20 °F 18 °F -8 °F (1999)
Degree Days  
Heating Degree Days 37 39  
Month to date heating degree days 37 39  
Since 1 July heating degree days 2413 2320  
Cooling Degree Days 0 0  
Month to date cooling degree days 0 0  
Year to date cooling degree days 0 0  
Moisture  
Dew Point 21 °F    
Average Humidity 81    
Maximum Humidity 92    
Minimum Humidity 69    
Precipitation  
Precipitation 0.04 in 0.09 in 0.14 in (1999)
Month to date precipitation 0.04 0.09  
Year to date precipitation 0.04 0.09  
Sea Level Pressure  
Sea Level Pressure 30.12 in    
Wind  
Wind Speed 10 mph (NE)    
Max Wind Speed 20 mph    
Max Gust Speed 23 mph    
Visibility 5 miles    
Events Snow    
T = Trace of Precipitation, MM = Missing Value Source: NWS Daily Summary

Daily Weather History Graph

Daily Weather History Graph

Search for Another Location

Airport:

Trip Planner

Search our weather history database for the weather conditions in past years. The results will help you decide how hot, cold, wet, or windy it might be!

Date:

Astronomy

Jan. 01, 2014 Rise Set
Actual Time 7:15 AM CST 4:38 PM CST
Civil Twilight 6:44 AM CST 5:09 PM CST
Nautical Twilight 6:10 AM CST 5:42 PM CST
Astronomical Twilight 5:37 AM CST 6:15 PM CST
Moon 7:05 AM CST (1/1) 5:23 PM CST (1/1)
Length of Visible Light 10h 24m
Length of Day
9h 23m
Waxing Crescent, 0% of the Moon is Illuminated
Jan 1
Waxing Crescent
Jan 7
First Quarter
Jan 15
Full
Jan 23
Last Quarter
Jan 30
New

Hourly Weather History & Observations

Time (CST) Temp. Windchill Dew Point Humidity Pressure Visibility Wind Dir Wind Speed Gust Speed Precip Events Conditions
12:53 AM 24.1 °F 16.0 °F 19.9 °F 84% 30.22 in 9.0 mi ENE 6.9 mph - N/A   Clear
1:53 AM 24.1 °F 15.2 °F 19.9 °F 84% 30.21 in 8.0 mi ENE 8.1 mph - N/A   Clear
2:53 AM 23.0 °F 13.9 °F 19.9 °F 88% 30.21 in 8.0 mi ENE 8.1 mph - N/A   Clear
3:53 AM 21.9 °F 12.5 °F 19.0 °F 89% 30.18 in 7.0 mi ENE 8.1 mph - N/A   Clear
4:53 AM 23.0 °F 11.7 °F 19.9 °F 88% 30.18 in 7.0 mi ENE 11.5 mph - N/A   Clear
5:53 AM 23.0 °F 12.4 °F 19.9 °F 88% 30.17 in 8.0 mi ENE 10.4 mph - N/A   Clear
6:53 AM 24.1 °F 13.7 °F 19.9 °F 84% 30.17 in 8.0 mi ENE 10.4 mph - N/A   Clear
7:53 AM 24.1 °F 16.0 °F 19.9 °F 84% 30.18 in 7.0 mi ENE 6.9 mph - N/A   Clear
8:53 AM 25.0 °F 16.3 °F 21.0 °F 85% 30.19 in 9.0 mi ENE 8.1 mph - N/A   Clear
9:53 AM 27.0 °F 18.0 °F 21.9 °F 81% 30.19 in 9.0 mi ENE 9.2 mph - N/A   Clear
10:53 AM 28.9 °F 21.9 °F 23.0 °F 78% 30.18 in 10.0 mi ENE 6.9 mph - N/A   Clear
11:53 AM 30.9 °F 25.2 °F 24.1 °F 76% 30.15 in 10.0 mi ENE 5.8 mph - N/A   Clear
12:53 PM 33.1 °F 28.7 °F 25.0 °F 72% 30.13 in 10.0 mi North 4.6 mph - N/A   Partly Cloudy
1:53 PM 34.0 °F 28.0 °F 25.0 °F 70% 30.12 in 9.0 mi NNE 6.9 mph - N/A   Mostly Cloudy
2:53 PM 33.1 °F 25.5 °F 24.1 °F 70% 30.11 in 10.0 mi NNE 9.2 mph - N/A   Mostly Cloudy
3:53 PM 30.0 °F 20.0 °F 24.1 °F 79% 30.11 in 9.0 mi NE 12.7 mph - N/A   Mostly Cloudy
4:53 PM 28.0 °F 17.0 °F 21.9 °F 78% 30.11 in 9.0 mi NE 13.8 mph - N/A   Overcast
5:53 PM 27.0 °F 15.6 °F 21.9 °F 81% 30.12 in 8.0 mi NNE 13.8 mph - N/A   Overcast
6:23 PM 26.6 °F 15.2 °F 21.2 °F 80% 30.08 in 2.0 mi NNE 13.8 mph - 0.00 in Snow Light Snow
6:30 PM 26.6 °F 14.3 °F 21.2 °F 80% 30.09 in 1.5 mi NNE 16.1 mph - 0.00 in Snow Light Snow
6:38 PM 24.8 °F 12.9 °F 21.2 °F 86% 30.09 in 1.2 mi NNE 13.8 mph - 0.00 in Snow Light Snow
6:49 PM 24.8 °F 12.9 °F 21.2 °F 86% 30.09 in 1.0 mi NNE 13.8 mph - 0.00 in Snow Light Snow
6:53 PM 25.0 °F 13.1 °F 21.9 °F 88% 30.12 in 1.0 mi NNE 13.8 mph - 0.00 in Snow Light Snow
7:22 PM 24.8 °F 13.4 °F 21.2 °F 86% 30.08 in 1.2 mi NNE 12.7 mph 20.7 mph 0.00 in Snow Light Snow
7:53 PM 24.1 °F 11.5 °F 21.0 °F 88% 30.11 in 1.5 mi NE 15.0 mph - 0.01 in Snow Light Snow
8:53 PM 23.0 °F 10.6 °F 19.9 °F 88% 30.10 in 1.2 mi NNE 13.8 mph - 0.00 in Snow Light Snow
9:28 PM 23.0 °F 9.6 °F 19.4 °F 86% 30.06 in 1.0 mi NNE 16.1 mph - 0.00 in Snow Light Snow
9:37 PM 21.2 °F 7.3 °F 19.4 °F 93% 30.06 in 0.8 mi NNE 16.1 mph - 0.01 in Snow Light Snow
9:48 PM 21.2 °F 8.9 °F 19.4 °F 93% 30.06 in 1.0 mi NNE 12.7 mph 23.0 mph 0.01 in Snow Light Snow
9:53 PM 21.9 °F 8.7 °F 19.0 °F 89% 30.09 in 1.0 mi NNE 15.0 mph - 0.01 in Snow Light Snow
10:09 PM 21.2 °F 8.9 °F 19.4 °F 93% 30.07 in 0.8 mi NNE 12.7 mph - 0.00 in Snow Light Snow
10:24 PM 21.2 °F 8.9 °F 19.4 °F 93% 30.06 in 1.0 mi NNE 12.7 mph - 0.01 in Snow Light Snow
10:31 PM 21.2 °F 7.8 °F 19.4 °F 93% 30.06 in 0.8 mi NNE 15.0 mph - 0.01 in Snow Light Snow
10:41 PM 21.2 °F 7.8 °F 17.6 °F 86% 30.06 in 1.0 mi NNE 15.0 mph - 0.01 in Snow Light Snow
10:53 PM 21.0 °F 8.1 °F 18.0 °F 88% 30.09 in 1.0 mi NNE 13.8 mph - 0.01 in Snow Light Snow
11:53 PM 19.9 °F 7.3 °F 16.0 °F 85% 30.08 in 1.2 mi NNE 12.7 mph - 0.01 in Snow Light Snow